This is the latest recevied weather packets stored in our database for station/object K4CRS-13. If no packets are shown the sender has not sent any weather packets the latest 10 day(s).
| Time | Temp. | Humidity | Pressure | Rain* | Wind** | Luminosity | Snow |
|---|---|---|---|---|---|---|---|
| 1787847385 | 26.67° C | 80% | 1051.8 hPa | 0 mm | - | 843 W/m² | - |
| 1787847081 | 25.56° C | 84% | 1051.8 hPa | 0 mm | - | 753 W/m² | - |
| 1787846777 | 25° C | 88% | 1051.9 hPa | 0 mm | - | 754 W/m² | - |
| 1787846472 | 25° C | 89% | 1051.7 hPa | 0 mm | - | 298 W/m² | - |
| 1787846168 | 25° C | 90% | 1051.8 hPa | 0 mm | - | 304 W/m² | - |
| 1787845863 | 24.44° C | 92% | 1052 hPa | 0 mm | - | 733 W/m² | - |
| 1787845558 | 24.44° C | 93% | 1051.8 hPa | 0 mm | - | 648 W/m² | - |
| 1787845253 | 23.89° C | 96% | 1052.2 hPa | 0 mm | - | 357 W/m² | - |
| 1787844949 | 23.33° C | 98% | 1052 hPa | 0 mm | - | 682 W/m² | - |
| 1787844649 | 22.78° C | 99% | 1051.8 hPa | 0 mm | - | 316 W/m² | - |
| 1787844343 | 22.78° C | 99% | 1051.9 hPa | 0 mm | - | 265 W/m² | - |
| 1787844043 | 22.78° C | 99% | 1051.9 hPa | 0 mm | - | 214 W/m² | - |
| 1787843738 | 22.78° C | 99% | 1052.1 hPa | 0 mm | - | 229 W/m² | - |
| 1787843433 | 22.78° C | 99% | 1051.9 hPa | 0 mm | - | 577 W/m² | - |
| 1787843130 | 22.78° C | 99% | 1052 hPa | 0 mm | - | 306 W/m² | - |
| 1787842825 | 22.78° C | 99% | 1052 hPa | 0 mm | - | 248 W/m² | - |
| 1787842519 | 22.78° C | 99% | 1051.9 hPa | 0 mm | - | 294 W/m² | - |
| 1787842218 | 22.22° C | 99% | 1052.1 hPa | 0 mm | - | 255 W/m² | - |
| 1787841914 | 22.22° C | 99% | 1052.1 hPa | 0 mm | - | 213 W/m² | - |
| 1787841610 | 22.22° C | 99% | 1052.1 hPa | 0 mm | - | 187 W/m² | - |
| 1787841308 | 22.22° C | 99% | 1051.7 hPa | 0 mm | - | 290 W/m² | - |
| 1787841004 | 22.22° C | 99% | 1051.8 hPa | 0 mm | - | 363 W/m² | - |
| 1787840699 | 21.67° C | 99% | 1051.8 hPa | 0 mm | - | 156 W/m² | - |
| 1787840394 | 22.22° C | 99% | 1051.8 hPa | 0 mm | - | 128 W/m² | - |
| 1787840089 | 22.22° C | 99% | 1051.4 hPa | 0 mm | - | 274 W/m² | - |
* Rain latest hour (hover to see other rain measurements)
** Current wind speed in m/s (hover to see current wind gust speed)